Precipitable_Water
0.67 0.70 0.71 0.72 0.76 0.82 0.89 0.90 0.92 0.94 0.95 0.94 0.94 0.94 0.93 0.93 0.93 0.92 0.92 0.92 0.91 0.90 0.89 0.89 0.89 0.90 0.90
0.61 0.65 0.67 0.72 0.73 0.76 0.81 0.84 0.85 0.88 0.89 0.89 0.90 0.89 0.88 0.87 0.85 0.86 0.85 0.84 0.84 0.83 0.82 0.82 0.81 0.79 0.79
0.57 0.63 0.65 0.66 0.67 0.70 0.72 0.73 0.77 0.79 0.80 0.81 0.83 0.81 0.82 0.82 0.80 0.80 0.77 0.75 0.73 0.72 0.72 0.68 0.63 0.61 0.60
0.54 0.53 0.55 0.58 0.59 0.57 0.59 0.63 0.61 0.63 0.66 0.67 0.64 0.64 0.64 0.63 0.61 0.59 0.58 0.57 0.54 0.49 0.44 0.40 0.37 0.36 0.37
0.38 0.40 0.41 0.41 0.41 0.43 0.42 0.42 0.42 0.43 0.43 0.44 0.45 0.45 0.44 0.43 0.40 0.36 0.32 0.29 0.27 0.26 0.26 0.27 0.29 0.31 0.33
0.26 0.25 0.24 0.24 0.25 0.25 0.24 0.22 0.19 0.25 0.22 0.20 0.21 0.19 0.18 0.17 0.17 0.18 0.19 0.20 0.22 0.24 0.27 0.31 0.33 0.33 0.33
0.18 0.19 0.19 0.21 0.21 0.19 0.19 0.18 0.16 0.19 0.18 0.13 0.17 0.14 0.17 0.17 0.19 0.22 0.24 0.26 0.28 0.30 0.32 0.33 0.33 0.33 0.32
0.26 0.25 0.24 0.25 0.24 0.23 0.21 0.20 0.19 0.19 0.19 0.12 0.16 0.16 0.19 0.21 0.22 0.24 0.26 0.28 0.30 0.31 0.32 0.33 0.32 0.31 0.31
0.29 0.28 0.28 0.27 0.26 0.23 0.19 0.17 0.14 0.15 0.19 0.17 0.18 0.19 0.21 0.22 0.24 0.27 0.29 0.30 0.31 0.32 0.32 0.31 0.32 0.31 0.31
0.24 0.23 0.22 0.22 0.22 0.23 0.20 0.16 0.16 0.16 0.22 0.20 0.21 0.22 0.18 0.23 0.24 0.25 0.27 0.29 0.29 0.29 0.30 0.30 0.30 0.29 0.28
0.20 0.20 0.21 0.21 0.23 0.24 0.25 0.24 0.22 0.21 0.26 0.26 0.24 0.23 0.23 0.21 0.23 0.25 0.25 0.26 0.27 0.27 0.28 0.29 0.30 0.30 0.28
0.21 0.21 0.21 0.23 0.26 0.28 0.28 0.29 0.28 0.27 0.29 0.29 0.25 0.24 0.22 0.21 0.20 0.24 0.25 0.26 0.27 0.27 0.28 0.29 0.30 0.30 0.32
0.23 0.23 0.25 0.28 0.29 0.29 0.29 0.29 0.29 0.30 0.30 0.30 0.28 0.27 0.25 0.22 0.22 0.23 0.24 0.27 0.29 0.28 0.29 0.29 0.29 0.29 0.27
0.25 0.27 0.29 0.29 0.28 0.29 0.27 0.27 0.26 0.26 0.29 0.29 0.28 0.27 0.25 0.26 0.26 0.25 0.28 0.26 0.29 0.30 0.30 0.30 0.31 0.31 0.31
0.26 0.26 0.27 0.28 0.28 0.29 0.28 0.27 0.25 0.24 0.25 0.27 0.29 0.29 0.29 0.28 0.26 0.28 0.29 0.29 0.31 0.32 0.32 0.30 0.32 0.33 0.33
0.26 0.25 0.24 0.25 0.26 0.27 0.27 0.25 0.23 0.23 0.23 0.25 0.25 0.25 0.26 0.28 0.31 0.28 0.29 0.30 0.32 0.33 0.33 0.30 0.30 0.34 0.35
0.25 0.25 0.24 0.23 0.23 0.22 0.21 0.22 0.21 0.21 0.21 0.22 0.23 0.23 0.21 0.20 0.26 0.31 0.29 0.32 0.32 0.32 0.33 0.32 0.30 0.32 0.33
Wind_Speed
22 24 24 24 24 21 16 14 14 10 8 12 17 20 23 23 25 27 28 27 27 28 29 31 31 31 32
21 22 22 21 20 15 14 14 12 12 13 15 17 19 21 22 24 25 26 28 30 31 31 31 32 32 34
20 20 19 18 17 15 14 15 15 16 17 18 19 20 23 25 25 26 26 26 27 28 29 30 31 32 33
17 17 17 17 16 15 14 15 15 15 16 17 19 20 21 22 24 25 27 28 29 30 31 32 33 33 34
17 18 18 18 18 18 18 17 17 18 19 20 21 23 24 26 28 29 30 31 32 32 33 33 34 35 36
20 20 20 21 21 20 20 20 21 21 21 23 24 26 28 29 30 31 31 32 32 32 32 33 33 34 34
22 22 23 23 23 23 23 23 24 25 25 26 27 28 28 28 29 29 29 29 29 29 30 31 31 32 32
23 23 24 24 24 25 25 25 26 26 25 25 26 27 27 27 27 27 28 29 29 29 29 29 30 31 32
24 24 24 25 25 25 25 25 25 24 25 25 25 27 27 27 28 28 28 28 28 29 29 29 30 31 32
25 25 25 25 24 24 24 24 24 25 25 25 27 27 28 28 28 29 30 30 30 30 31 31 32 31 31
25 24 24 24 24 23 24 24 25 27 28 28 29 30 30 31 31 31 32 33 33 34 34 33 32 30 29
24 24 24 24 25 25 26 27 28 29 31 31 31 31 32 33 33 33 34 34 34 34 34 33 32 31 29
25 25 26 26 27 28 28 29 30 32 32 33 33 33 34 34 33 33 33 32 34 33 31 30 30 30 30
26 27 28 28 29 29 30 31 32 33 33 33 33 34 34 33 34 34 34 32 32 33 33 32 32 32 32
28 29 30 30 30 31 32 33 33 33 33 33 34 34 33 34 34 34 35 34 34 34 34 33 32 32 32
30 31 31 32 32 33 33 33 33 33 34 34 34 33 32 32 33 33 33 34 33 33 33 34 33 32 33
32 33 33 33 33 33 33 32 32 33 33 33 32 30 31 32 31 32 33 32 33 33 33 34 34 33 33
Wind_Direction
309 313 316 314 315 310 302 301 300 289 268 255 251 252 254 257 260 263 263 262 263 264 265 263 263 263 263
310 315 319 321 321 309 301 300 291 289 279 271 264 262 261 264 265 266 266 267 266 266 265 266 265 265 264
311 315 319 322 324 319 302 298 290 287 280 277 273 271 268 268 269 269 268 267 268 269 268 268 267 266 265
313 317 319 320 321 319 315 302 296 291 284 281 278 274 273 272 271 270 270 271 271 271 270 270 269 269 268
310 312 313 314 312 310 307 304 300 295 290 286 283 279 277 276 275 275 273 273 272 271 271 270 270 270 269
306 306 307 307 307 305 303 301 298 296 292 288 286 283 281 279 278 277 275 274 274 273 273 273 272 271 271
304 303 303 303 302 301 300 298 296 295 294 290 289 288 286 284 281 279 278 276 275 274 274 274 273 273 273
304 303 302 301 301 299 298 297 296 295 294 291 292 290 289 287 283 281 279 277 276 276 276 275 275 275 275
305 304 303 302 301 299 299 299 297 296 295 293 294 293 291 289 287 284 282 279 277 276 276 276 276 277 276
306 305 304 303 302 300 299 298 297 298 297 296 295 296 292 289 288 285 281 279 277 277 277 277 278 277 275
308 308 307 306 305 303 301 299 298 296 297 297 295 295 292 290 288 285 283 281 277 276 276 277 275 274 274
308 308 307 306 305 303 302 299 298 297 297 296 295 294 292 291 288 286 284 281 279 277 275 273 272 272 270
307 307 307 305 304 303 302 301 300 300 298 296 295 294 292 290 288 287 286 282 281 278 274 272 270 268 270
307 307 306 305 304 304 303 303 302 302 300 298 296 295 293 290 289 287 285 282 280 278 276 273 270 269 270
307 307 306 305 305 304 304 304 302 302 301 300 299 297 293 292 290 287 285 282 279 276 274 271 271 270 270
307 306 306 305 305 304 304 303 303 302 301 301 300 299 299 296 291 289 287 284 279 275 272 270 270 271 270
306 306 305 305 305 305 305 304 304 303 303 302 300 299 300 300 298 292 290 286 281 276 273 270 269 271 271